SL-16 DEB, 22339

Orbit data source: Space-Track

SL-16 DEB, 22339 is space debris in LEO originally from a launch on Fri, 25 Dec 1992 UTC launched from the Tyuratam Missile And Space Complex (TTMTR). Debris objects in space refer to the collection of defunct objects orbiting the Earth. Examples of debris include non-operational satellites, rocket bodies, and fragments generated from explosions, collisions, or faulty payload assembly.

Loading next visibility...
Identifier
22339, 1992-093AC
Orbit
LEO
Last TLE update
17 hours ago
Origin
Manufacturer
Unknown
Mission
Spacecraft
Bus & Motor
Unknown
Mass
Unknown
Launch date (UTC)
1992-12-25 (33 years ago)
Launch vehicle
Unknown
Launch site
Tyuratam Missile And Space Complex (TTMTR)
Object type
Payload
Rocket body
Debris
Shape & HBR
Unknown
Radar Cross Section
Medium (>0.1 m² and <1 m²)

Expand to show TLE details & history

TLE from 17 hours ago
0 SL-16 DEB
1 22339U 92093AC  25186.50686467  .00000119  00000-0  55695-4 0  9991
2 22339  70.8088 208.9733 0126501 334.8002  24.6990 14.35147524680335
Epoch: 2025-07-05T12:09Z
TLE epoch observation values (Epoch: 2025-07-05T12:09:53.107Z)
Latitude
Longitude
102.7581°
Altitude
694.974 km
Speed
7.552 km/s
True Right ascension
13h 55m 53s
True Declination
0° 00' 00"
Sunlit
Object was in daylight at epoch
Visualization orbit readout
Latitude
27.8079°
Longitude
111.73917°
Altitude
725.863 km
Speed
7.522 km/s
Apparent Right ascension
11h 07m 18s
Apparent Declination
-11° 37' 17"
Sunlit
Object is in daylight
Visualization observer readout
Local Sidereal Time
16:58:52
Azimuth
259.717° W
Elevation
-5.835°
Doppler factor
1
Orbital elements
Apogee altitude
862.956 km
Perigee altitude
682.044 km
Semi-major axis
7,150.637 km
Eccentricity
0.01265
Inclination
70.8088°
RAAN
208.9733°
Arg. of periapsis
334.8002°
True anomaly
Unknown
Mean anomaly
24.699°
Eccentric anomaly
Unknown
Mean motion
3.58943 °/min
Orbital period
100.29 mins
BSTAR
0.000055695
Loading maneuver chart data...
Loading SW <> Apogee altitude chart data...
Loading historical data...
Loading historical data...
Loading historical data...
Loading historical data...
Loading historical data...
Loading historical data...
Loading historical data...

SL-16 DEB Visibility forecast

Observer location: undefined°, undefined°

Span
Click to sort rows by Start time (UTC) header in descending order
Start Az.
Max El. time (UTC)
Max El. Az.
Max El.
End time (UTC)
End Az.
10 mins2025-07-06 12:07:36.529Z347.028° N2025-07-06 12:12:36.529Z60.615° ENE38.911°2025-07-06 12:17:36.529Z138.017° SSE
6 mins2025-07-06 13:52:36.529Z289.246° WNW2025-07-06 13:54:36.529Z262.863° W20.032°2025-07-06 13:58:36.529Z215.167° SW
8 mins2025-07-07 02:46:36.529Z203.556° SW2025-07-07 02:49:36.529Z212.37° SW43.93°2025-07-07 02:54:36.529Z22.63° NE
|